Time,TemperatureF,DewpointF,PressureIn,WindDirection,WindDirectionDegrees,WindSpeedMPH,WindSpeedGustMPH,Humidity,HourlyPrecipIn,Conditions,Clouds,dailyrainin,SolarRadiationWatts/m^2,SoftwareType,DateUTC
2013-03-28 00:00:00,43.2,28.0,29.90,NNW,342,7.0,14.0,55,0.00,,,0.00,0.0,meteohub,2013-03-28 04:00:00,
2013-03-28 00:03:00,43.0,27.9,29.90,NNW,331,5.0,14.0,55,0.00,,,0.00,0.0,meteohub,2013-03-28 04:03:00,
2013-03-28 00:08:00,43.0,27.9,29.90,North,355,5.0,14.0,55,0.00,,,0.00,0.0,meteohub,2013-03-28 04:08:00,
2013-03-28 00:13:00,42.8,28.2,29.90,NW,326,7.0,9.0,56,0.00,,,0.00,0.0,meteohub,2013-03-28 04:13:00,
2013-03-28 00:18:00,42.6,28.0,29.90,North,351,4.0,11.0,56,0.00,,,0.00,0.0,meteohub,2013-03-28 04:18:00,
2013-03-28 00:23:00,42.6,28.0,29.90,NNW,346,4.0,11.0,56,0.00,,,0.00,0.0,meteohub,2013-03-28 04:23:00,
2013-03-28 00:28:00,42.4,27.9,29.90,NNW,327,4.0,11.0,56,0.00,,,0.00,0.0,meteohub,2013-03-28 04:28:00,
2013-03-28 00:33:00,42.3,28.0,29.90,NW,320,5.0,11.0,57,0.00,,,0.00,0.0,meteohub,2013-03-28 04:33:00,
2013-03-28 00:39:00,42.1,27.9,29.90,NW,321,7.0,8.0,57,0.00,,,0.00,0.0,meteohub,2013-03-28 04:39:00,
2013-03-28 00:44:00,41.9,28.2,29.90,NW,319,5.0,9.0,58,0.00,,,0.00,0.0,meteohub,2013-03-28 04:44:00,
2013-03-28 00:49:00,41.7,28.0,29.90,NNW,331,5.0,9.0,58,0.00,,,0.00,0.0,meteohub,2013-03-28 04:49:00,
2013-03-28 00:54:00,41.5,28.2,29.90,NNW,336,7.0,9.0,59,0.00,,,0.00,0.0,meteohub,2013-03-28 04:54:00,
2013-03-28 00:59:00,41.4,28.0,29.90,NW,320,2.0,8.0,59,0.00,,,0.00,0.0,meteohub,2013-03-28 04:59:00,
2013-03-28 01:04:00,41.2,27.9,29.90,WNW,298,6.0,8.0,59,0.00,,,0.00,0.0,meteohub,2013-03-28 05:04:00,
2013-03-28 01:09:00,41.2,27.9,29.90,NW,321,7.0,8.0,59,0.00,,,0.00,0.0,meteohub,2013-03-28 05:09:00,
2013-03-28 01:14:00,41.2,27.9,29.90,NW,321,8.0,9.0,59,0.00,,,0.00,0.0,meteohub,2013-03-28 05:14:00,
2013-03-28 01:19:00,41.2,27.9,29.90,NNW,331,7.0,11.0,59,0.00,,,0.00,0.0,meteohub,2013-03-28 05:19:00,
2013-03-28 01:25:00,41.0,28.2,29.89,NW,323,5.0,11.0,60,0.00,,,0.00,0.0,meteohub,2013-03-28 05:25:00,
2013-03-28 01:30:00,40.8,28.0,29.89,NNW,329,7.0,11.0,60,0.00,,,0.00,0.0,meteohub,2013-03-28 05:30:00,
2013-03-28 01:35:00,40.6,28.2,29.90,NW,315,5.0,11.0,61,0.00,,,0.00,0.0,meteohub,2013-03-28 05:35:00,
2013-03-28 01:40:00,40.6,28.2,29.90,NW,323,6.0,11.0,61,0.00,,,0.00,0.0,meteohub,2013-03-28 05:40:00,
2013-03-28 01:45:00,40.5,28.0,29.89,NNW,333,12.0,12.0,61,0.00,,,0.00,0.0,meteohub,2013-03-28 05:45:00,
2013-03-28 01:50:00,40.6,28.6,29.89,North,0,4.0,12.0,62,0.00,,,0.00,0.0,meteohub,2013-03-28 05:50:00,
2013-03-28 01:55:00,40.5,28.4,29.89,NNW,344,6.0,12.0,62,0.00,,,0.00,0.0,meteohub,2013-03-28 05:55:00,
2013-03-28 02:00:00,40.3,28.2,29.89,NNW,329,5.0,10.0,62,0.00,,,0.00,0.0,meteohub,2013-03-28 06:00:00,
2013-03-28 02:05:00,40.3,28.8,29.89,North,10,7.0,14.0,63,0.00,,,0.00,0.0,meteohub,2013-03-28 06:05:00,
2013-03-28 02:10:00,40.3,28.8,29.89,NNW,348,4.0,14.0,63,0.00,,,0.00,0.0,meteohub,2013-03-28 06:10:00,
2013-03-28 02:15:00,40.3,29.1,29.89,NNW,327,7.0,14.0,64,0.00,,,0.00,0.0,meteohub,2013-03-28 06:15:00,
2013-03-28 02:21:00,40.3,28.8,29.89,NNW,346,5.0,16.0,63,0.00,,,0.00,0.0,meteohub,2013-03-28 06:21:00,
2013-03-28 02:26:00,40.3,29.1,29.90,NNW,346,5.0,16.0,64,0.00,,,0.00,0.0,meteohub,2013-03-28 06:26:00,
2013-03-28 02:31:00,39.9,28.8,29.89,NNW,339,4.0,10.0,64,0.00,,,0.00,0.0,meteohub,2013-03-28 06:31:00,
2013-03-28 02:36:00,39.7,28.6,29.89,NW,319,6.0,8.0,64,0.00,,,0.00,0.0,meteohub,2013-03-28 06:36:00,
2013-03-28 02:41:00,39.7,28.9,29.89,NNE,13,7.0,7.0,65,0.00,,,0.00,0.0,meteohub,2013-03-28 06:41:00,
2013-03-28 02:46:00,39.7,28.9,29.89,North,355,5.0,10.0,65,0.00,,,0.00,0.0,meteohub,2013-03-28 06:46:00,
2013-03-28 02:52:00,39.7,28.9,29.89,NW,323,9.0,10.0,65,0.00,,,0.00,0.0,meteohub,2013-03-28 06:52:00,
2013-03-28 02:57:00,39.7,28.9,29.89,NNW,342,4.0,10.0,65,0.00,,,0.00,0.0,meteohub,2013-03-28 06:57:00,
2013-03-28 03:02:00,39.6,29.1,29.89,NW,325,5.0,10.0,66,0.00,,,0.00,0.0,meteohub,2013-03-28 07:02:00,
2013-03-28 03:07:00,39.6,29.1,29.89,NW,325,2.0,12.0,66,0.00,,,0.00,0.0,meteohub,2013-03-28 07:07:00,
2013-03-28 03:12:00,39.6,29.1,29.89,NW,317,6.0,12.0,66,0.00,,,0.00,0.0,meteohub,2013-03-28 07:12:00,
2013-03-28 03:17:00,39.6,29.1,29.89,NNW,331,7.0,12.0,66,0.00,,,0.00,0.0,meteohub,2013-03-28 07:17:00,
2013-03-28 03:22:00,39.6,29.1,29.89,NW,305,4.0,9.0,66,0.00,,,0.00,0.0,meteohub,2013-03-28 07:22:00,
2013-03-28 03:27:00,39.4,29.3,29.89,NNW,339,4.0,8.0,67,0.00,,,0.00,0.0,meteohub,2013-03-28 07:27:00,
2013-03-28 03:32:00,39.2,29.1,29.89,NNW,337,5.0,8.0,67,0.00,,,0.00,0.0,meteohub,2013-03-28 07:32:00,
2013-03-28 03:37:00,39.2,29.5,29.89,NNW,334,4.0,11.0,68,0.00,,,0.00,0.0,meteohub,2013-03-28 07:37:00,
2013-03-28 03:43:00,39.0,29.3,29.89,NW,315,5.0,11.0,68,0.00,,,0.00,0.0,meteohub,2013-03-28 07:43:00,
2013-03-28 03:48:00,39.0,29.3,29.89,NW,315,5.0,11.0,68,0.00,,,0.00,0.0,meteohub,2013-03-28 07:48:00,
2013-03-28 03:53:00,38.8,29.1,29.89,NW,320,0.0,9.0,68,0.00,,,0.00,0.0,meteohub,2013-03-28 07:53:00,
2013-03-28 03:58:00,38.7,28.9,29.90,NNW,344,1.0,7.0,68,0.00,,,0.00,0.0,meteohub,2013-03-28 07:58:00,
2013-03-28 04:03:00,38.5,29.1,29.90,NNW,332,5.0,7.0,69,0.00,,,0.00,0.0,meteohub,2013-03-28 08:03:00,
2013-03-28 04:08:00,38.5,29.1,29.90,NW,325,6.0,6.0,69,0.00,,,0.00,0.0,meteohub,2013-03-28 08:08:00,
2013-03-28 04:13:00,38.5,29.5,29.89,NNW,330,5.0,6.0,70,0.00,,,0.00,0.0,meteohub,2013-03-28 08:13:00,
2013-03-28 04:18:00,38.5,29.5,29.90,NW,324,4.0,7.0,70,0.00,,,0.00,0.0,meteohub,2013-03-28 08:18:00,
2013-03-28 04:23:00,38.3,29.3,29.90,NW,326,2.0,7.0,70,0.00,,,0.00,0.0,meteohub,2013-03-28 08:23:00,
2013-03-28 04:28:00,38.3,29.3,29.90,WNW,297,7.0,7.0,70,0.00,,,0.00,0.0,meteohub,2013-03-28 08:28:00,
2013-03-28 04:34:00,38.5,29.5,29.90,NW,319,5.0,7.0,70,0.00,,,0.00,0.0,meteohub,2013-03-28 08:34:00,
2013-03-28 04:39:00,38.5,29.8,29.90,NW,316,5.0,9.0,71,0.00,,,0.00,0.0,meteohub,2013-03-28 08:39:00,
2013-03-28 04:44:00,38.5,29.5,29.90,NNW,331,5.0,9.0,70,0.00,,,0.00,0.0,meteohub,2013-03-28 08:44:00,
2013-03-28 04:49:00,38.5,29.8,29.90,North,355,5.0,9.0,71,0.00,,,0.00,0.0,meteohub,2013-03-28 08:49:00,
2013-03-28 04:54:00,38.5,29.8,29.90,NW,304,9.0,11.0,71,0.00,,,0.00,0.0,meteohub,2013-03-28 08:54:00,
2013-03-28 04:59:00,38.5,29.8,29.90,NNW,331,4.0,11.0,71,0.00,,,0.00,0.0,meteohub,2013-03-28 08:59:00,
2013-03-28 05:04:00,38.5,29.8,29.90,North,350,5.0,12.0,71,0.00,,,0.00,0.0,meteohub,2013-03-28 09:04:00,
2013-03-28 05:09:00,38.3,29.7,29.90,NNW,331,5.0,12.0,71,0.00,,,0.00,0.0,meteohub,2013-03-28 09:09:00,
2013-03-28 05:14:00,38.3,29.7,29.90,North,5,4.0,9.0,71,0.00,,,0.00,0.0,meteohub,2013-03-28 09:14:00,
2013-03-28 05:19:00,38.1,29.5,29.90,NNE,14,4.0,9.0,71,0.00,,,0.00,0.0,meteohub,2013-03-28 09:19:00,
2013-03-28 05:24:00,37.9,29.3,29.90,WNW,298,5.0,9.0,71,0.00,,,0.00,0.0,meteohub,2013-03-28 09:24:00,
2013-03-28 05:29:00,37.9,29.7,29.90,North,355,4.0,10.0,72,0.00,,,0.00,0.0,meteohub,2013-03-28 09:29:00,
2013-03-28 05:34:00,37.9,29.7,29.90,NW,315,2.0,10.0,72,0.00,,,0.00,0.0,meteohub,2013-03-28 09:34:00,
2013-03-28 05:40:00,37.8,29.5,29.90,NW,318,0.0,10.0,72,0.00,,,0.00,0.0,meteohub,2013-03-28 09:40:00,
2013-03-28 05:45:00,37.8,29.5,29.90,NNW,341,7.0,9.0,72,0.00,,,0.00,0.0,meteohub,2013-03-28 09:45:00,
2013-03-28 05:50:00,37.9,29.7,29.91,North,0,7.0,14.0,72,0.00,,,0.00,0.0,meteohub,2013-03-28 09:50:00,
2013-03-28 05:55:00,37.9,29.7,29.91,NW,308,6.0,14.0,72,0.00,,,0.00,0.0,meteohub,2013-03-28 09:55:00,
2013-03-28 06:00:00,37.9,30.0,29.91,NNW,336,5.0,14.0,73,0.00,,,0.00,0.0,meteohub,2013-03-28 10:00:00,
2013-03-28 06:05:00,37.9,30.0,29.91,NW,320,1.0,10.0,73,0.00,,,0.00,0.0,meteohub,2013-03-28 10:05:00,
2013-03-28 06:10:00,37.9,30.0,29.91,NW,317,6.0,9.0,73,0.00,,,0.00,0.0,meteohub,2013-03-28 10:10:00,
2013-03-28 06:15:00,37.8,29.8,29.91,NNW,340,5.0,9.0,73,0.00,,,0.00,0.0,meteohub,2013-03-28 10:15:00,
2013-03-28 06:20:00,37.9,30.0,29.91,NNW,343,1.0,9.0,73,0.00,,,0.00,0.0,meteohub,2013-03-28 10:20:00,
2013-03-28 06:25:00,37.9,30.0,29.91,North,355,9.0,9.0,73,0.00,,,0.00,0.0,meteohub,2013-03-28 10:25:00,
2013-03-28 06:30:00,37.9,30.0,29.91,North,355,4.0,10.0,73,0.00,,,0.00,0.0,meteohub,2013-03-28 10:30:00,
2013-03-28 06:35:00,37.8,29.8,29.92,NNW,331,0.0,10.0,73,0.00,,,0.00,0.0,meteohub,2013-03-28 10:35:00,
2013-03-28 06:41:00,37.8,29.8,29.92,NNW,333,5.0,10.0,73,0.00,,,0.00,0.0,meteohub,2013-03-28 10:41:00,
2013-03-28 06:46:00,37.6,29.7,29.92,NNW,346,5.0,8.0,73,0.00,,,0.00,5.0,meteohub,2013-03-28 10:46:00,
2013-03-28 06:51:00,37.8,30.2,29.92,North,5,3.0,9.0,74,0.00,,,0.00,7.0,meteohub,2013-03-28 10:51:00,
2013-03-28 06:56:00,37.8,30.2,29.92,NNE,17,4.0,9.0,74,0.00,,,0.00,9.0,meteohub,2013-03-28 10:56:00,
2013-03-28 07:01:00,37.8,30.2,29.92,NW,325,6.0,9.0,74,0.00,,,0.00,12.0,meteohub,2013-03-28 11:01:00,
2013-03-28 07:06:00,37.9,30.4,29.92,NNW,346,5.0,10.0,74,0.00,,,0.00,16.0,meteohub,2013-03-28 11:06:00,
2013-03-28 07:11:00,38.1,30.6,29.92,NNW,328,5.0,10.0,74,0.00,,,0.00,19.0,meteohub,2013-03-28 11:11:00,
2013-03-28 07:17:00,38.1,30.6,29.93,North,0,4.0,10.0,74,0.00,,,0.00,26.0,meteohub,2013-03-28 11:17:00,
2013-03-28 07:22:00,38.3,30.7,29.93,North,0,3.0,9.0,74,0.00,,,0.00,35.0,meteohub,2013-03-28 11:22:00,
2013-03-28 07:27:00,38.5,30.9,29.93,NNW,331,4.0,9.0,74,0.00,,,0.00,60.0,meteohub,2013-03-28 11:27:00,
2013-03-28 07:32:00,38.7,31.1,29.94,NW,313,4.0,11.0,74,0.00,,,0.00,67.0,meteohub,2013-03-28 11:32:00,
2013-03-28 07:37:00,39.0,31.1,29.94,NNW,338,6.0,11.0,73,0.00,,,0.00,100.0,meteohub,2013-03-28 11:37:00,
2013-03-28 07:42:00,39.6,31.6,29.94,NW,304,8.0,11.0,73,0.00,,,0.00,84.0,meteohub,2013-03-28 11:42:00,
2013-03-28 07:47:00,39.9,32.0,29.94,North,5,6.0,11.0,73,0.00,,,0.00,128.0,meteohub,2013-03-28 11:47:00,
2013-03-28 07:52:00,40.5,32.2,29.94,NNE,24,4.0,11.0,72,0.00,,,0.00,155.0,meteohub,2013-03-28 11:52:00,
2013-03-28 07:57:00,40.8,32.2,29.94,North,355,2.0,11.0,71,0.00,,,0.00,139.0,meteohub,2013-03-28 11:57:00,
2013-03-28 08:02:00,41.4,32.4,29.94,North,0,7.0,11.0,70,0.00,,,0.00,139.0,meteohub,2013-03-28 12:02:00,
2013-03-28 08:08:00,41.5,32.5,29.94,NNE,19,8.0,11.0,70,0.00,,,0.00,146.0,meteohub,2013-03-28 12:08:00,
2013-03-28 08:13:00,41.7,32.7,29.94,NNE,22,6.0,11.0,70,0.00,,,0.00,156.0,meteohub,2013-03-28 12:13:00,
2013-03-28 08:18:00,42.1,32.7,29.95,North,0,7.0,14.0,69,0.00,,,0.00,248.0,meteohub,2013-03-28 12:18:00,
2013-03-28 08:23:00,42.6,33.1,29.95,NNE,15,8.0,14.0,69,0.00,,,0.00,297.0,meteohub,2013-03-28 12:23:00,
2013-03-28 08:28:00,43.2,33.3,29.95,NW,323,8.0,14.0,68,0.00,,,0.00,185.0,meteohub,2013-03-28 12:28:00,
2013-03-28 08:33:00,43.2,33.3,29.95,NNW,334,12.0,16.0,68,0.00,,,0.00,214.0,meteohub,2013-03-28 12:33:00,
2013-03-28 08:38:00,43.2,33.3,29.95,NW,311,9.0,19.0,68,0.00,,,0.00,202.0,meteohub,2013-03-28 12:38:00,
2013-03-28 08:43:00,43.3,33.4,29.95,North,355,9.0,19.0,68,0.00,,,0.00,202.0,meteohub,2013-03-28 12:43:00,
2013-03-28 08:48:00,43.0,33.4,29.95,NNE,22,12.0,19.0,69,0.00,,,0.00,207.0,meteohub,2013-03-28 12:48:00,
2013-03-28 08:53:00,43.0,33.8,29.95,NNE,31,16.0,16.0,70,0.00,,,0.00,200.0,meteohub,2013-03-28 12:53:00,
2013-03-28 08:58:00,43.2,33.6,29.95,NNW,338,11.0,19.0,69,0.00,,,0.00,192.0,meteohub,2013-03-28 12:58:00,
2013-03-28 09:04:00,43.0,33.4,29.95,NNW,342,11.0,19.0,69,0.00,,,0.00,216.0,meteohub,2013-03-28 13:04:00,
2013-03-28 09:09:00,43.0,34.2,29.95,NNE,31,6.0,18.0,71,0.00,,,0.00,206.0,meteohub,2013-03-28 13:09:00,
2013-03-28 09:14:00,43.2,34.3,29.95,NNE,16,10.0,22.0,71,0.00,,,0.00,221.0,meteohub,2013-03-28 13:14:00,
2013-03-28 09:19:00,43.2,34.3,29.95,North,5,8.0,22.0,71,0.00,,,0.00,257.0,meteohub,2013-03-28 13:19:00,
2013-03-28 09:24:00,43.5,34.7,29.96,NW,317,6.0,19.0,71,0.00,,,0.00,271.0,meteohub,2013-03-28 13:24:00,
2013-03-28 09:29:00,43.5,34.7,29.96,North,355,9.0,17.0,71,0.00,,,0.00,294.0,meteohub,2013-03-28 13:29:00,
2013-03-28 09:34:00,44.1,35.6,29.96,NW,308,11.0,17.0,72,0.00,,,0.00,272.0,meteohub,2013-03-28 13:34:00,
2013-03-28 09:39:00,44.2,35.4,29.96,North,10,9.0,17.0,71,0.00,,,0.00,290.0,meteohub,2013-03-28 13:39:00,
2013-03-28 09:44:00,44.4,35.2,29.96,NNE,28,8.0,17.0,70,0.00,,,0.00,345.0,meteohub,2013-03-28 13:44:00,
2013-03-28 09:49:00,44.2,35.4,29.96,North,5,13.0,18.0,71,0.00,,,0.00,399.0,meteohub,2013-03-28 13:49:00,
2013-03-28 09:54:00,44.4,36.0,29.96,NE,34,6.0,18.0,72,0.00,,,0.00,353.0,meteohub,2013-03-28 13:54:00,
2013-03-28 09:59:00,44.8,35.6,29.96,NNW,340,8.0,18.0,70,0.00,,,0.00,265.0,meteohub,2013-03-28 13:59:00,
2013-03-28 10:05:00,44.8,35.6,29.96,NE,37,5.0,17.0,70,0.00,,,0.00,309.0,meteohub,2013-03-28 14:05:00,
2013-03-28 10:10:00,45.1,35.6,29.96,NW,319,6.0,16.0,69,0.00,,,0.00,443.0,meteohub,2013-03-28 14:10:00,
2013-03-28 10:15:00,45.5,36.0,29.96,North,5,13.0,14.0,69,0.00,,,0.00,469.0,meteohub,2013-03-28 14:15:00,
2013-03-28 10:20:00,45.9,36.3,29.96,North,355,11.0,14.0,69,0.00,,,0.00,436.0,meteohub,2013-03-28 14:20:00,
2013-03-28 10:25:00,46.4,35.6,29.96,North,0,5.0,18.0,66,0.00,,,0.00,339.0,meteohub,2013-03-28 14:25:00,
2013-03-28 10:30:00,46.2,36.0,29.96,NNW,348,6.0,18.0,67,0.00,,,0.00,345.0,meteohub,2013-03-28 14:30:00,
2013-03-28 10:35:00,46.2,36.0,29.96,North,5,9.0,18.0,67,0.00,,,0.00,374.0,meteohub,2013-03-28 14:35:00,
2013-03-28 10:41:00,46.6,35.8,29.96,NNE,15,12.0,14.0,66,0.00,,,0.00,345.0,meteohub,2013-03-28 14:41:00,
2013-03-28 10:46:00,46.8,35.6,29.96,NNE,20,9.0,17.0,65,0.00,,,0.00,497.0,meteohub,2013-03-28 14:46:00,
2013-03-28 10:51:00,48.4,36.7,29.96,NNE,29,12.0,17.0,64,0.00,,,0.00,745.0,meteohub,2013-03-28 14:51:00,
2013-03-28 10:56:00,48.9,36.5,29.96,NNW,342,11.0,16.0,62,0.00,,,0.00,823.0,meteohub,2013-03-28 14:56:00,
2013-03-28 11:01:00,48.9,36.5,29.96,North,355,7.0,16.0,62,0.00,,,0.00,816.0,meteohub,2013-03-28 15:01:00,
2013-03-28 11:06:00,49.3,36.9,29.96,NNE,12,7.0,16.0,62,0.00,,,0.00,529.0,meteohub,2013-03-28 15:06:00,
2013-03-28 11:12:00,48.9,36.1,29.96,North,5,11.0,16.0,61,0.00,,,0.00,424.0,meteohub,2013-03-28 15:12:00,
2013-03-28 11:17:00,48.9,36.1,29.96,North,355,8.0,17.0,61,0.00,,,0.00,373.0,meteohub,2013-03-28 15:17:00,
2013-03-28 11:22:00,49.3,36.3,29.96,North,0,7.0,17.0,61,0.00,,,0.00,424.0,meteohub,2013-03-28 15:22:00,
2013-03-28 11:27:00,48.9,36.1,29.96,NNE,22,14.0,19.0,61,0.00,,,0.00,445.0,meteohub,2013-03-28 15:27:00,
2013-03-28 11:32:00,48.9,36.1,29.96,North,5,6.0,19.0,61,0.00,,,0.00,383.0,meteohub,2013-03-28 15:32:00,
2013-03-28 11:37:00,48.9,36.1,29.96,NW,309,9.0,19.0,61,0.00,,,0.00,366.0,meteohub,2013-03-28 15:37:00,
2013-03-28 11:42:00,48.6,35.8,29.96,NE,38,8.0,18.0,61,0.00,,,0.00,410.0,meteohub,2013-03-28 15:42:00,
2013-03-28 11:47:00,48.7,36.0,29.96,NNW,331,15.0,17.0,61,0.00,,,0.00,464.0,meteohub,2013-03-28 15:47:00,
2013-03-28 11:53:00,48.6,35.8,29.96,NNW,348,6.0,17.0,61,0.00,,,0.00,431.0,meteohub,2013-03-28 15:53:00,
2013-03-28 11:58:00,49.6,36.0,29.96,NW,308,7.0,17.0,59,0.00,,,0.00,346.0,meteohub,2013-03-28 15:58:00,
2013-03-28 12:03:00,50.4,36.1,29.96,NNE,28,6.0,17.0,58,0.00,,,0.00,621.0,meteohub,2013-03-28 16:03:00,
2013-03-28 12:08:00,50.7,35.6,29.96,NNE,12,15.0,15.0,56,0.00,,,0.00,396.0,meteohub,2013-03-28 16:08:00,
2013-03-28 12:13:00,50.2,34.7,29.96,North,11,8.0,15.0,55,0.00,,,0.00,353.0,meteohub,2013-03-28 16:13:00,
2013-03-28 12:18:00,50.4,34.9,29.96,NNE,13,6.0,17.0,55,0.00,,,0.00,390.0,meteohub,2013-03-28 16:18:00,
2013-03-28 12:23:00,50.7,35.6,29.96,North,5,8.0,17.0,56,0.00,,,0.00,362.0,meteohub,2013-03-28 16:23:00,
2013-03-28 12:28:00,51.1,35.1,29.96,NW,305,6.0,17.0,54,0.00,,,0.00,696.0,meteohub,2013-03-28 16:28:00,
2013-03-28 12:34:00,51.4,34.9,29.96,WNW,303,7.0,16.0,53,0.00,,,0.00,462.0,meteohub,2013-03-28 16:34:00,
2013-03-28 12:39:00,51.3,35.2,29.96,NW,311,9.0,16.0,54,0.00,,,0.00,450.0,meteohub,2013-03-28 16:39:00,
2013-03-28 12:44:00,51.6,34.5,29.96,NW,305,11.0,18.0,52,0.00,,,0.00,431.0,meteohub,2013-03-28 16:44:00,
2013-03-28 12:49:00,52.0,34.9,29.96,NNE,22,7.0,18.0,52,0.00,,,0.00,478.0,meteohub,2013-03-28 16:49:00,
2013-03-28 12:54:00,51.8,34.7,29.96,NE,36,11.0,18.0,52,0.00,,,0.00,329.0,meteohub,2013-03-28 16:54:00,
2013-03-28 12:59:00,51.6,35.1,29.96,NNW,328,11.0,16.0,53,0.00,,,0.00,367.0,meteohub,2013-03-28 16:59:00,
2013-03-28 13:04:00,51.4,34.9,29.95,NNW,327,6.0,16.0,53,0.00,,,0.00,452.0,meteohub,2013-03-28 17:04:00,
2013-03-28 13:09:00,52.3,35.8,29.95,NNE,17,5.0,15.0,53,0.00,,,0.00,452.0,meteohub,2013-03-28 17:09:00,
2013-03-28 13:14:00,54.0,34.2,29.95,NNW,348,15.0,15.0,47,0.00,,,0.00,1028.0,meteohub,2013-03-28 17:14:00,
2013-03-28 13:19:00,54.7,33.8,29.95,NNE,16,6.0,16.0,45,0.00,,,0.00,636.0,meteohub,2013-03-28 17:19:00,
2013-03-28 13:25:00,54.1,33.3,29.95,NNE,19,9.0,17.0,45,0.00,,,0.00,441.0,meteohub,2013-03-28 17:25:00,
2013-03-28 13:29:00,54.1,33.8,29.95,North,9,8.0,17.0,46,0.00,,,0.00,466.0,meteohub,2013-03-28 17:29:00,
2013-03-28 13:35:00,53.2,34.0,29.95,NNW,327,10.0,17.0,48,0.00,,,0.00,213.0,meteohub,2013-03-28 17:35:00,
2013-03-28 13:40:00,52.7,34.2,29.95,NNE,14,3.0,15.0,49,0.00,,,0.00,367.0,meteohub,2013-03-28 17:40:00,
2013-03-28 13:45:00,53.2,34.0,29.95,NW,314,12.0,15.0,48,0.00,,,0.00,853.0,meteohub,2013-03-28 17:45:00,
2013-03-28 13:50:00,54.7,33.3,29.94,NNW,330,10.0,15.0,44,0.00,,,0.00,763.0,meteohub,2013-03-28 17:50:00,
2013-03-28 13:55:00,55.2,33.6,29.95,NNE,12,7.0,18.0,44,0.00,,,0.00,239.0,meteohub,2013-03-28 17:55:00,
2013-03-28 14:00:00,54.0,32.5,29.95,NW,321,12.0,18.0,44,0.00,,,0.00,294.0,meteohub,2013-03-28 18:00:00,
2013-03-28 14:05:00,53.2,33.1,29.94,NNE,22,5.0,15.0,46,0.00,,,0.00,800.0,meteohub,2013-03-28 18:05:00,
2013-03-28 14:10:00,54.3,34.0,29.94,NW,322,6.0,15.0,46,0.00,,,0.00,719.0,meteohub,2013-03-28 18:10:00,
2013-03-28 14:15:00,55.0,33.4,29.94,NNW,329,9.0,15.0,44,0.00,,,0.00,387.0,meteohub,2013-03-28 18:15:00,
2013-03-28 14:20:00,54.9,32.2,29.94,NNE,26,5.0,15.0,42,0.00,,,0.00,223.0,meteohub,2013-03-28 18:20:00,
2013-03-28 14:25:00,54.1,33.3,29.94,NW,323,10.0,15.0,45,0.00,,,0.00,172.0,meteohub,2013-03-28 18:25:00,
2013-03-28 14:30:00,53.4,33.1,29.94,NNW,342,7.0,15.0,46,0.00,,,0.00,183.0,meteohub,2013-03-28 18:30:00,
2013-03-28 14:36:00,52.9,32.2,29.94,NW,319,11.0,15.0,45,0.00,,,0.00,200.0,meteohub,2013-03-28 18:36:00,
2013-03-28 14:41:00,52.5,31.8,29.94,NE,39,3.0,15.0,45,0.00,,,0.00,218.0,meteohub,2013-03-28 18:41:00,
2013-03-28 14:46:00,52.7,32.5,29.94,NNE,26,5.0,13.0,46,0.00,,,0.00,195.0,meteohub,2013-03-28 18:46:00,
2013-03-28 14:51:00,52.5,31.8,29.94,North,355,5.0,11.0,45,0.00,,,0.00,169.0,meteohub,2013-03-28 18:51:00,
2013-03-28 14:56:00,52.5,33.4,29.94,North,350,9.0,10.0,48,0.00,,,0.00,232.0,meteohub,2013-03-28 18:56:00,
2013-03-28 15:01:00,52.5,33.4,29.94,North,0,6.0,12.0,48,0.00,,,0.00,327.0,meteohub,2013-03-28 19:01:00,
2013-03-28 15:06:00,53.2,31.8,29.94,NNW,333,6.0,14.0,44,0.00,,,0.00,615.0,meteohub,2013-03-28 19:06:00,
2013-03-28 15:12:00,54.3,32.4,29.94,NE,48,4.0,16.0,43,0.00,,,0.00,320.0,meteohub,2013-03-28 19:12:00,
2013-03-28 15:17:00,54.3,32.9,29.94,North,355,5.0,16.0,44,0.00,,,0.00,299.0,meteohub,2013-03-28 19:17:00,
2013-03-28 15:22:00,54.7,33.3,29.94,NNW,346,6.0,16.0,44,0.00,,,0.00,315.0,meteohub,2013-03-28 19:22:00,
2013-03-28 15:27:00,54.7,32.5,29.94,NNE,17,9.0,13.0,43,0.00,,,0.00,213.0,meteohub,2013-03-28 19:27:00,
2013-03-28 15:32:00,54.1,32.7,29.94,NNW,342,5.0,13.0,44,0.00,,,0.00,186.0,meteohub,2013-03-28 19:32:00,
2013-03-28 15:37:00,53.2,31.8,29.94,NNW,327,9.0,13.0,44,0.00,,,0.00,162.0,meteohub,2013-03-28 19:37:00,
2013-03-28 15:42:00,52.9,32.2,29.94,NW,317,6.0,14.0,45,0.00,,,0.00,127.0,meteohub,2013-03-28 19:42:00,
2013-03-28 15:47:00,52.9,32.2,29.94,NW,315,6.0,14.0,45,0.00,,,0.00,111.0,meteohub,2013-03-28 19:47:00,
2013-03-28 15:52:00,52.7,32.0,29.94,North,355,6.0,13.0,45,0.00,,,0.00,93.0,meteohub,2013-03-28 19:52:00,
2013-03-28 15:57:00,52.3,32.2,29.94,WNW,300,12.0,18.0,46,0.00,,,0.00,69.0,meteohub,2013-03-28 19:57:00,
2013-03-28 16:02:00,52.0,32.4,29.94,North,11,8.0,18.0,47,0.00,,,0.00,62.0,meteohub,2013-03-28 20:02:00,
2013-03-28 16:07:00,51.4,32.4,29.94,North,0,4.0,14.0,48,0.00,,,0.00,58.0,meteohub,2013-03-28 20:07:00,
2013-03-28 16:12:00,51.3,31.6,29.94,NW,311,5.0,14.0,47,0.00,,,0.00,62.0,meteohub,2013-03-28 20:12:00,
2013-03-28 16:17:00,51.3,32.2,29.94,North,355,8.0,14.0,48,0.00,,,0.00,58.0,meteohub,2013-03-28 20:17:00,
2013-03-28 16:22:00,51.1,33.1,29.94,NW,304,11.0,13.0,50,0.00,,,0.00,63.0,meteohub,2013-03-28 20:22:00,
2013-03-28 16:28:00,50.7,32.2,29.94,North,11,6.0,13.0,49,0.00,,,0.00,69.0,meteohub,2013-03-28 20:28:00,
2013-03-28 16:33:00,50.5,32.5,29.94,NW,320,9.0,16.0,50,0.00,,,0.00,81.0,meteohub,2013-03-28 20:33:00,
2013-03-28 16:38:00,50.4,32.9,29.94,NNW,340,8.0,19.0,51,0.00,,,0.00,104.0,meteohub,2013-03-28 20:38:00,
2013-03-28 16:43:00,50.2,33.3,29.94,NW,308,9.0,19.0,52,0.00,,,0.00,113.0,meteohub,2013-03-28 20:43:00,
2013-03-28 16:48:00,50.2,32.7,29.94,NW,321,11.0,17.0,51,0.00,,,0.00,118.0,meteohub,2013-03-28 20:48:00,
2013-03-28 16:53:00,49.8,32.4,29.94,NW,316,9.0,18.0,51,0.00,,,0.00,116.0,meteohub,2013-03-28 20:53:00,
2013-03-28 16:58:00,50.0,32.5,29.95,NNW,327,5.0,18.0,51,0.00,,,0.00,120.0,meteohub,2013-03-28 20:58:00,
2013-03-28 17:03:00,50.4,32.9,29.95,North,0,7.0,18.0,51,0.00,,,0.00,130.0,meteohub,2013-03-28 21:03:00,
2013-03-28 17:08:00,50.7,33.3,29.95,West,278,5.0,14.0,51,0.00,,,0.00,134.0,meteohub,2013-03-28 21:08:00,
2013-03-28 17:13:00,50.5,32.5,29.95,WNW,298,7.0,12.0,50,0.00,,,0.00,156.0,meteohub,2013-03-28 21:13:00,
2013-03-28 17:18:00,50.9,32.9,29.96,WNW,298,6.0,12.0,50,0.00,,,0.00,179.0,meteohub,2013-03-28 21:18:00,
2013-03-28 17:23:00,51.4,32.9,29.96,NW,304,11.0,15.0,49,0.00,,,0.00,236.0,meteohub,2013-03-28 21:23:00,
2013-03-28 17:29:00,51.4,32.9,29.96,North,355,12.0,16.0,49,0.00,,,0.00,199.0,meteohub,2013-03-28 21:29:00,
2013-03-28 17:34:00,51.8,32.2,29.96,NNW,327,7.0,16.0,47,0.00,,,0.00,272.0,meteohub,2013-03-28 21:34:00,
2013-03-28 17:39:00,52.5,32.9,29.96,NNW,333,7.0,16.0,47,0.00,,,0.00,359.0,meteohub,2013-03-28 21:39:00,
2013-03-28 17:44:00,52.9,32.7,29.96,NNE,18,9.0,17.0,46,0.00,,,0.00,120.0,meteohub,2013-03-28 21:44:00,
2013-03-28 17:49:00,52.5,32.4,29.96,NW,321,7.0,17.0,46,0.00,,,0.00,149.0,meteohub,2013-03-28 21:49:00,
2013-03-28 17:54:00,52.3,32.7,29.96,North,350,7.0,16.0,47,0.00,,,0.00,283.0,meteohub,2013-03-28 21:54:00,
2013-03-28 18:00:00,52.5,32.4,29.96,NNE,15,7.0,14.0,46,0.00,,,0.00,265.0,meteohub,2013-03-28 22:00:00,
2013-03-28 18:05:00,52.9,32.7,29.96,WNW,290,2.0,15.0,46,0.00,,,0.00,241.0,meteohub,2013-03-28 22:05:00,
2013-03-28 18:10:00,53.1,32.4,29.97,NNW,327,7.0,18.0,45,0.00,,,0.00,211.0,meteohub,2013-03-28 22:10:00,
2013-03-28 18:15:00,53.2,32.4,29.97,WNW,286,8.0,18.0,45,0.00,,,0.00,171.0,meteohub,2013-03-28 22:15:00,
2013-03-28 18:20:00,52.9,32.2,29.97,North,349,13.0,18.0,45,0.00,,,0.00,146.0,meteohub,2013-03-28 22:20:00,
2013-03-28 18:25:00,52.3,32.2,29.97,NW,312,8.0,16.0,46,0.00,,,0.00,95.0,meteohub,2013-03-28 22:25:00,
2013-03-28 18:30:00,52.2,32.5,29.97,NW,314,13.0,18.0,47,0.00,,,0.00,70.0,meteohub,2013-03-28 22:30:00,
2013-03-28 18:35:00,51.6,32.0,29.98,WNW,288,13.0,19.0,47,0.00,,,0.00,30.0,meteohub,2013-03-28 22:35:00,
2013-03-28 18:40:00,51.3,32.2,29.98,NW,321,9.0,19.0,48,0.00,,,0.00,23.0,meteohub,2013-03-28 22:40:00,
2013-03-28 18:45:00,50.9,32.4,29.98,NNW,330,11.0,19.0,49,0.00,,,0.00,14.0,meteohub,2013-03-28 22:45:00,
2013-03-28 18:51:00,50.5,32.0,29.98,WNW,286,9.0,20.0,49,0.00,,,0.00,9.0,meteohub,2013-03-28 22:51:00,
2013-03-28 18:56:00,50.4,32.4,29.99,NW,313,7.0,20.0,50,0.00,,,0.00,7.0,meteohub,2013-03-28 22:56:00,
2013-03-28 19:01:00,50.2,32.7,29.99,WNW,296,6.0,20.0,51,0.00,,,0.00,5.0,meteohub,2013-03-28 23:01:00,
2013-03-28 19:06:00,49.8,32.9,29.99,NW,321,6.0,17.0,52,0.00,,,0.00,0.0,meteohub,2013-03-28 23:06:00,
2013-03-28 19:11:00,49.6,32.7,29.99,WNW,303,6.0,16.0,52,0.00,,,0.00,0.0,meteohub,2013-03-28 23:11:00,
2013-03-28 19:16:00,49.5,33.1,29.99,NNE,24,7.0,16.0,53,0.00,,,0.00,0.0,meteohub,2013-03-28 23:16:00,
2013-03-28 19:21:00,49.5,33.1,29.99,WNW,298,6.0,16.0,53,0.00,,,0.00,0.0,meteohub,2013-03-28 23:21:00,
2013-03-28 19:27:00,49.3,32.9,29.99,NNW,347,6.0,14.0,53,0.00,,,0.00,0.0,meteohub,2013-03-28 23:27:00,
2013-03-28 19:32:00,49.3,32.9,29.99,WNW,301,9.0,14.0,53,0.00,,,0.00,0.0,meteohub,2013-03-28 23:32:00,
2013-03-28 19:37:00,48.9,32.5,30.00,North,0,6.0,11.0,53,0.00,,,0.00,0.0,meteohub,2013-03-28 23:37:00,
2013-03-28 19:42:00,48.9,32.5,30.00,NNW,337,6.0,12.0,53,0.00,,,0.00,0.0,meteohub,2013-03-28 23:42:00,
2013-03-28 19:47:00,48.9,32.5,30.00,North,5,4.0,13.0,53,0.00,,,0.00,0.0,meteohub,2013-03-28 23:47:00,
2013-03-28 19:52:00,48.7,32.4,30.01,North,10,8.0,14.0,53,0.00,,,0.00,0.0,meteohub,2013-03-28 23:52:00,
2013-03-28 19:57:00,48.7,32.4,30.00,NW,326,4.0,16.0,53,0.00,,,0.00,0.0,meteohub,2013-03-28 23:57:00,
2013-03-28 20:02:00,48.7,32.4,30.01,NW,321,5.0,16.0,53,0.00,,,0.00,0.0,meteohub,2013-03-29 00:02:00,
2013-03-28 20:07:00,48.7,32.9,30.01,NNW,333,5.0,16.0,54,0.00,,,0.00,0.0,meteohub,2013-03-29 00:07:00,
2013-03-28 20:12:00,48.6,32.7,30.01,NNW,344,6.0,13.0,54,0.00,,,0.00,0.0,meteohub,2013-03-29 00:12:00,
2013-03-28 20:17:00,48.6,32.7,30.02,NW,313,6.0,12.0,54,0.00,,,0.00,0.0,meteohub,2013-03-29 00:17:00,
2013-03-28 20:22:00,48.6,32.7,30.02,NNW,329,4.0,10.0,54,0.00,,,0.00,0.0,meteohub,2013-03-29 00:22:00,
2013-03-28 20:28:00,48.4,32.9,30.02,NNW,327,6.0,9.0,55,0.00,,,0.00,0.0,meteohub,2013-03-29 00:28:00,
2013-03-28 20:33:00,48.2,32.7,30.02,NNW,330,5.0,9.0,55,0.00,,,0.00,0.0,meteohub,2013-03-29 00:33:00,
2013-03-28 20:38:00,48.2,33.3,30.02,NNW,346,4.0,11.0,56,0.00,,,0.00,0.0,meteohub,2013-03-29 00:38:00,
2013-03-28 20:43:00,48.0,33.1,30.03,WNW,296,5.0,13.0,56,0.00,,,0.00,0.0,meteohub,2013-03-29 00:43:00,
2013-03-28 20:48:00,48.0,33.1,30.03,NNE,22,5.0,13.0,56,0.00,,,0.00,0.0,meteohub,2013-03-29 00:48:00,
2013-03-28 20:53:00,47.8,33.3,30.03,WNW,300,6.0,8.0,57,0.00,,,0.00,0.0,meteohub,2013-03-29 00:53:00,
2013-03-28 20:58:00,47.8,33.3,30.03,NNW,346,5.0,9.0,57,0.00,,,0.00,0.0,meteohub,2013-03-29 00:58:00,
2013-03-28 21:03:00,47.8,33.3,30.03,North,0,4.0,9.0,57,0.00,,,0.00,0.0,meteohub,2013-03-29 01:03:00,
2013-03-28 21:08:00,47.8,33.8,30.03,NNW,327,4.0,10.0,58,0.00,,,0.00,0.0,meteohub,2013-03-29 01:08:00,
2013-03-28 21:13:00,47.7,33.6,30.03,North,5,5.0,10.0,58,0.00,,,0.00,0.0,meteohub,2013-03-29 01:13:00,
2013-03-28 21:18:00,47.7,33.6,30.03,North,11,5.0,10.0,58,0.00,,,0.00,0.0,meteohub,2013-03-29 01:18:00,
2013-03-28 21:23:00,47.7,33.6,30.04,NNW,336,6.0,10.0,58,0.00,,,0.00,0.0,meteohub,2013-03-29 01:23:00,
2013-03-28 21:28:00,47.7,34.0,30.04,North,355,6.0,10.0,59,0.00,,,0.00,0.0,meteohub,2013-03-29 01:28:00,
2013-03-28 21:34:00,47.7,34.0,30.04,North,355,7.0,10.0,59,0.00,,,0.00,0.0,meteohub,2013-03-29 01:34:00,
2013-03-28 21:39:00,47.7,34.0,30.04,NNW,348,7.0,10.0,59,0.00,,,0.00,0.0,meteohub,2013-03-29 01:39:00,
2013-03-28 21:44:00,47.5,34.3,30.04,North,355,4.0,10.0,60,0.00,,,0.00,0.0,meteohub,2013-03-29 01:44:00,
2013-03-28 21:49:00,47.5,34.7,30.04,North,350,7.0,10.0,61,0.00,,,0.00,0.0,meteohub,2013-03-29 01:49:00,
2013-03-28 21:54:00,47.3,34.5,30.04,NNW,345,7.0,10.0,61,0.00,,,0.00,0.0,meteohub,2013-03-29 01:54:00,
2013-03-28 21:59:00,47.1,34.3,30.04,NNW,348,2.0,10.0,61,0.00,,,0.00,0.0,meteohub,2013-03-29 01:59:00,
2013-03-28 22:04:00,47.1,34.3,30.04,NNW,341,4.0,9.0,61,0.00,,,0.00,0.0,meteohub,2013-03-29 02:04:00,
2013-03-28 22:09:00,46.9,34.2,30.04,North,355,2.0,9.0,61,0.00,,,0.00,0.0,meteohub,2013-03-29 02:09:00,
2013-03-28 22:14:00,46.9,34.2,30.04,NNW,346,2.0,9.0,61,0.00,,,0.00,0.0,meteohub,2013-03-29 02:14:00,
2013-03-28 22:19:00,46.8,34.0,30.04,NW,306,1.0,7.0,61,0.00,,,0.00,0.0,meteohub,2013-03-29 02:19:00,
2013-03-28 22:24:00,46.8,34.0,30.04,North,355,6.0,7.0,61,0.00,,,0.00,0.0,meteohub,2013-03-29 02:24:00,
2013-03-28 22:30:00,46.8,34.0,30.05,North,355,4.0,8.0,61,0.00,,,0.00,0.0,meteohub,2013-03-29 02:30:00,
2013-03-28 22:35:00,46.6,34.3,30.05,NNW,336,6.0,8.0,62,0.00,,,0.00,0.0,meteohub,2013-03-29 02:35:00,
2013-03-28 22:40:00,46.6,34.3,30.05,NW,317,4.0,9.0,62,0.00,,,0.00,0.0,meteohub,2013-03-29 02:40:00,
2013-03-28 22:45:00,46.6,34.3,30.04,NNW,335,5.0,9.0,62,0.00,,,0.00,0.0,meteohub,2013-03-29 02:45:00,
2013-03-28 22:50:00,46.6,34.3,30.04,NNW,331,7.0,9.0,62,0.00,,,0.00,0.0,meteohub,2013-03-29 02:50:00,
2013-03-28 22:55:00,46.6,34.7,30.04,North,355,5.0,12.0,63,0.00,,,0.00,0.0,meteohub,2013-03-29 02:55:00,
2013-03-28 23:00:00,46.6,34.7,30.04,NW,315,4.0,12.0,63,0.00,,,0.00,0.0,meteohub,2013-03-29 03:00:00,
2013-03-28 23:05:00,46.6,34.7,30.04,NNW,332,4.0,12.0,63,0.00,,,0.00,0.0,meteohub,2013-03-29 03:05:00,
2013-03-28 23:10:00,46.6,34.7,30.04,NNW,333,2.0,8.0,63,0.00,,,0.00,0.0,meteohub,2013-03-29 03:10:00,
2013-03-28 23:15:00,46.6,34.7,30.05,NNW,327,1.0,9.0,63,0.00,,,0.00,0.0,meteohub,2013-03-29 03:15:00,
2013-03-28 23:20:00,46.4,34.5,30.05,NNW,328,4.0,9.0,63,0.00,,,0.00,0.0,meteohub,2013-03-29 03:20:00,
2013-03-28 23:26:00,46.4,34.5,30.05,NW,321,2.0,9.0,63,0.00,,,0.00,0.0,meteohub,2013-03-29 03:26:00,
2013-03-28 23:31:00,46.2,34.3,30.05,NNW,332,4.0,9.0,63,0.00,,,0.00,0.0,meteohub,2013-03-29 03:31:00,
2013-03-28 23:36:00,46.2,34.7,30.05,NNW,332,0.0,7.0,64,0.00,,,0.00,0.0,meteohub,2013-03-29 03:36:00,
2013-03-28 23:41:00,46.0,34.5,30.05,NW,309,2.0,7.0,64,0.00,,,0.00,0.0,meteohub,2013-03-29 03:41:00,
2013-03-28 23:46:00,45.9,34.3,30.05,NW,317,2.0,6.0,64,0.00,,,0.00,0.0,meteohub,2013-03-29 03:46:00,
2013-03-28 23:51:00,45.9,34.3,30.04,NW,305,4.0,7.0,64,0.00,,,0.00,0.0,meteohub,2013-03-29 03:51:00,
2013-03-28 23:57:00,45.7,34.5,30.05,WNW,294,8.0,8.0,65,0.00,,,0.00,0.0,meteohub,2013-03-29 03:57:00,